Torna al catalogo

SL-12 DEB

LostHEO
NORAD 41680·DEBRIS·🇷🇺 Russia

Lanciato Oct 26, 2007 da Baikonur Cosmodrome

Loading…

Prossimi Passaggi (prossime 24 ore)

TLE

ObsoletoSource: Space-Track

Epoca: Dec 7, 2016, 02:09 UTC

1 41680U 07052M   16342.08982156  .00006365  00000-0  62759-1 0  9998
2 41680  64.4676  20.4104 4840762  28.0525 351.5239  5.30914690 40995

Traccia SL-12 DEB in tempo reale con AllMySat

Download on the App Store